Back to catalog

STARLINK-36864

AliveCommunicationsVLEO
NORAD 68045·PAYLOAD·🇺🇸 United States

Launched Mar 2, 2026 from Vandenberg Space Force Base

Loading…

Next Passes (next 24 hours)

TLE

FreshSource: CelesTrak SupGP

Epoch: Sep 14, 2026, 22:41 UTC

1 68045C 26041F   26257.94562500  .00035526  00000+0  10495-2 0  2577
2 68045  53.1573 245.7804 0001425  93.4643 316.8559 15.34377720    17

Track STARLINK-36864 in real time with AllMySat

Download on the App Store